Flag for U.S.A. Weather past 2 weeks in Barnstable, Massachusetts, U.S.A.

Now
52 °F

Sunny.


Feels Like: 49 °F
Forecast: 35 / 49 °F
Wind: 8 mph from West

Location: Barnstable Municipal-Boardman Airport

Current Time: Dec 27, 2014 at 12:14:54 PM

Latest Report: Dec 27, 2014 at 11:56 AM


Visibility: 10 mi

Pressure: 30.16 "Hg

Humidity: 45%

Dew point: 31 °F

Location of BarnstableLocation

Historic Weather in Barnstable — Graph

°F

Barnstable temperature yesterday

Maximum temperature yesterday: 50 °F (at 12:56 PM)
Minimum temperature yesterday: 29 °F (at 11:56 PM)
Average temperature yesterday: 40 °F

Past Weeks' High & Low Weather Summary

 TemperatureHumidityPressure
High60 °F (Dec 24, 10:56 PM)100% (Dec 17, 3:56 AM)30.35 "Hg (Dec 17, 3:56 AM)
Low29 °F (Dec 26, 11:56 PM)48% (Dec 26, 12:56 PM)29.55 "Hg (Dec 25, 5:56 AM)
Average41 °F80%29.98 "Hg
* Reported Dec 12 10:56 AM — Dec 27 10:56 AM, Barnstable, Weather by CustomWeather, © 2014

Note: Actual official high and low records may vary slightly from our data, if they occured in-between our weather recording intervals... More about our weather records

Advertising

Barnstable weather history for previous 24 hours

 ConditionsComfort  
Time TempWeatherWind HumidityBarometerVisibility
10:56 AM
Dec 27
50 °FSunny.9 mph48%30.19 "Hg10 mi
9:56 AM47 °FSunny.8 mph54%30.22 "Hg10 mi
8:56 AM42 °FSunny.6 mph65%30.21 "Hg10 mi
7:56 AM32 °FSunny.No wind85%30.20 "Hg10 mi
6:56 AM33 °FClear.3 mph82%30.17 "Hg10 mi
5:56 AM31 °FClear.3 mph89%30.16 "Hg10 mi
4:56 AM31 °FClear.3 mph85%30.15 "Hg10 mi
3:56 AM37 °FClear.3 mph76%30.13 "Hg10 mi
2:56 AM39 °FClear.6 mph73%30.14 "Hg10 mi
1:56 AM38 °FClear.7 mph73%30.12 "Hg10 mi
12:56 AM38 °FClear.5 mph73%30.12 "Hg10 mi
11:56 PM
Dec 26
29 °FClear.3 mph93%30.13 "Hg9 mi
10:56 PM30 °FClear.No wind92%30.15 "Hg10 mi
9:56 PM30 °FClear.No wind92%30.15 "Hg7 mi
8:56 PM33 °FClear.No wind85%30.15 "Hg9 mi
7:56 PM34 °FClear.3 mph85%30.15 "Hg10 mi
6:56 PM39 °FClear.7 mph76%30.15 "Hg10 mi
5:56 PM37 °FClear.5 mph82%30.13 "Hg10 mi
4:56 PM41 °FClear.No wind70%30.12 "Hg10 mi
3:56 PM47 °FSunny.5 mph54%30.11 "Hg10 mi
2:56 PM49 °FSunny.8 mph50%30.11 "Hg10 mi
1:56 PM50 °FSunny.9 mph48%30.11 "Hg10 mi
12:56 PM50 °FSunny.9 mph48%30.10 "Hg10 mi
Weather by CustomWeather, © 2014

See weather overviewHow to use our weather pages